This is the latest recevied weather packets stored in our database for station/object EMGATE. If no packets are shown the sender has not sent any weather packets the latest 10 day(s).
| Time | Temp. | Humidity | Pressure | Rain* | Wind** | Luminosity | Snow |
|---|---|---|---|---|---|---|---|
| 1777434948 | 15.56° C | 46% | 1012.1 hPa | 0 mm | - | - | - |
| 1777434842 | 15.56° C | 46% | 1012.1 hPa | 0 mm | - | - | - |
| 1777433942 | 16.11° C | 45% | 1011.9 hPa | 0 mm | - | - | - |
| 1777433042 | 16.11° C | 45% | 1011.9 hPa | 0 mm | - | - | - |
| 1777432142 | 16.11° C | 45% | 1012.1 hPa | 0 mm | - | - | - |
| 1777431242 | 16.67° C | 45% | 1012.3 hPa | 0 mm | - | - | - |
| 1777430342 | 16.67° C | 45% | 1012.4 hPa | 0 mm | - | - | - |
| 1777429442 | 16.67° C | 44% | 1012.5 hPa | 0 mm | - | - | - |
| 1777428542 | 16.67° C | 44% | 1012.5 hPa | 0 mm | - | - | - |
| 1777427642 | 16.67° C | 44% | 1012.6 hPa | 0 mm | - | - | - |
| 1777426742 | 16.67° C | 44% | 1012.5 hPa | 0 mm | - | - | - |
| 1777425842 | 17.22° C | 44% | 1012.6 hPa | 0 mm | - | - | - |
| 1777424942 | 17.22° C | 43% | 1012.6 hPa | 0 mm | - | - | - |
| 1777424042 | 16.67° C | 43% | 1012.4 hPa | 0 mm | - | - | - |
| 1777423142 | 17.22° C | 42% | 1012.3 hPa | 0 mm | - | - | - |
| 1777422242 | 17.78° C | 42% | 1012.3 hPa | 0 mm | - | - | - |
| 1777421342 | 17.78° C | 40% | 1012.2 hPa | 0 mm | - | - | - |
| 1777420442 | 18.33° C | 40% | 1012.3 hPa | 0 mm | - | - | - |
| 1777419542 | 18.89° C | 40% | 1012.3 hPa | 0 mm | - | - | - |
| 1777418642 | 19.44° C | 38% | 1012.3 hPa | 0 mm | - | - | - |
| 1777417742 | 20° C | 36% | 1012.3 hPa | 0 mm | - | - | - |
| 1777416842 | 20.56° C | 34% | 1012.4 hPa | 0 mm | - | - | - |
| 1777415942 | 20.56° C | 32% | 1012.5 hPa | 0 mm | - | - | - |
| 1777415042 | 20.56° C | 32% | 1012.9 hPa | 0 mm | - | - | - |
| 1777414142 | 21.11° C | 34% | 1013 hPa | 0 mm | - | - | - |
* Rain latest hour (hover to see other rain measurements)
** Current wind speed in m/s (hover to see current wind gust speed)